Regional Weather Roundup
Issued by NWS

Home | Current Version | Previous Version | Graphics & Text | Print | Product List | Glossary On
Versions: 1 2 3 4 5 6 7 8 9 10 11 12 13 14 15 16 17 18 19 20 21 22 23 24 25 26 27 28 29 30 31 32 33 34 35 36 37 38 39 40 41 42 43 44 45 46 47 48 49 50
000
ASUS43 KIND 200609
RWRIN

WEATHER ROUNDUP FOR INDIANA
NATIONAL WEATHER SERVICE INDIANAPOLIS IN
100 AM EST MON FEB 20 2017

NOTE: "FAIR" INDICATES FEW OR NO CLOUDS BELOW 12,000 FEET WITH NO
SIGNIFICANT WEATHER AND/OR OBSTRUCTIONS TO VISIBILITY.

* - STATION DOES NOT REPORT WEATHER SUCH AS PRECIPITATION OR FOG.

+ - STATION NOT QUALITY CONTROLLED BY THE NATIONAL WEATHER SERVICE.
    USE DATA WITH CAUTION...ESPECIALLY DEWPOINT AND RELATIVE
    HUMIDITY OBSERVATIONS.

INZ001>003-010>013-019-020-200700-
NORTHWEST INDIANA

CITY           SKY/WX    TMP DP  RH WIND       PRES   REMARKS
GARY /AIRPORT/ PTCLDY    48  40  74 SE5       30.13S
KNOX *+        PTCLDY    36  19  51 E3        30.15R
LA PORTE +     CLOUDY    40  29  66 CALM      30.15S
6HR MIN TEMP:  36; 6HR MAX TEMP:  51;

MICHIGAN CITY+ CLOUDY    45  28  53 E3        30.15R
MONTICELLO +   CLEAR     43  41  93 SE3       30.14S
6HR MIN TEMP:  42; 6HR MAX TEMP:  57;

RENSSELAER +   PTCLDY    45  43  93 CALM      30.14S
VALPARAISO     CLOUDY    43  33  68 E6        30.14S
6HR MIN TEMP:  43; 6HR MAX TEMP:  56;


$$

LMZ046-743>745-200700-
SOUTHERN LAKE MICHIGAN

STATION/POSITION TIME  TEMP    WIND        PRES    WAVE
                       AIR SEA DIR/SP/G            HT
                 (UTC) (F)     (DEG/KT/KT) (MB)    (FT)
BURNS HARBOR     0602   54     140/  7/ 11 1020.7
MICHIGAN CITY    0540   52     110/  6/  7   N/A

$$

INZ004-005-014>016-021>024-200700-
NORTH CENTRAL INDIANA

CITY           SKY/WX    TMP DP  RH WIND       PRES   REMARKS
GOSHEN         CLOUDY    38  31  76 CALM      30.16R
6HR MIN TEMP:  37; 6HR MAX TEMP:  55;

LOGANSPORT +   CLEAR     41  37  87 E3        30.16S
PERU/GRISSOM   CLEAR     44  44 100 S3        30.14S FOG
6HR MIN TEMP:  43; 6HR MAX TEMP:  53;

ROCHESTER +    PTCLDY    37  34  87 E3        30.16R
SOUTH BEND     CLOUDY    37  26  64 CALM      30.16R
6HR MIN TEMP:  36; 6HR MAX TEMP:  50;

WARSAW +       CLOUDY    36  32  87 CALM      30.16S

$$

INZ006>009-017-018-025>027-200700-
NORTHEAST INDIANA

CITY           SKY/WX    TMP DP  RH WIND       PRES   REMARKS
ANGOLA *+      CLEAR     36  34  93 CALM      30.16S
AUBURN +       PTCLDY    37  32  81 CALM      30.17R
FORT WAYNE     CLOUDY    39  33  79 SW3       30.17R
6HR MIN TEMP:  37; 6HR MAX TEMP:  53;

HUNTINGTON +   CLOUDY    39  37  91 CALM      30.17R
6HR MIN TEMP:  37; 6HR MAX TEMP:  56;

KENDALLVILLE + PTCLDY    39  34  81 CALM      30.17R

$$

INZ028-029-035-036-043>045-051>053-200700-
WEST CENTRAL INDIANA

CITY           SKY/WX    TMP DP  RH WIND       PRES   REMARKS
GREENCASTLE +  FOG       37  37 100 CALM      30.15F VSB 1/4
LAFAYETTE      CLEAR     43  41  93 CALM      30.14S
6HR MIN TEMP:  39; 6HR MAX TEMP:  55;

TERRE HAUTE    FOG       40  38  93 SE3       30.15F VSB 1/4
6HR MIN TEMP:  38; 6HR MAX TEMP:  54;


$$

INZ030>032-037>040-046>048-054>057-064-065-200700-
CENTRAL INDIANA

CITY           SKY/WX    TMP DP  RH WIND       PRES   REMARKS
CP ATTERBURY + MOCLDY    36  36 100 CALM      30.18R VSB 1/2
FRANKFORT +    CLEAR     42  40  93 S5        30.16F FOG
6HR MIN TEMP:  41; 6HR MAX TEMP:  55;

GREENWOOD *+   PTCLDY    46  44  95 CALM      30.17S
6HR MIN TEMP:  46; 6HR MAX TEMP:  56;

INDIANAPOLIS   CLEAR     46  43  89 CALM      30.16S FOG
6HR MIN TEMP:  45; 6HR MAX TEMP:  57;

-EAGLE CREEK   CLEAR     43  39  86 CALM      30.16R
6HR MIN TEMP:  43; 6HR MAX TEMP:  60;

KOKOMO +       CLEAR     41  40  96 SE5       30.16R FOG
6HR MIN TEMP:  41; 6HR MAX TEMP:  53;

MARION +       CLEAR     40  38  94 CALM      30.17R
MT COMFORT *+  CLEAR     43  41  93 S5        30.17R
SHELBYVILLE    FOG       43  40  89 SE5       30.16R VSB 1/2
6HR MIN TEMP:  42; 6HR MAX TEMP:  51;

ZIONSVILLE +   CLEAR     39  38  95 CALM      30.16S FOG
6HR MIN TEMP:  38; 6HR MAX TEMP:  53;


$$

INZ033-034-041-042-049-050-058-059-200700-
EAST CENTRAL INDIANA

CITY           SKY/WX    TMP DP  RH WIND       PRES   REMARKS
MUNCIE         CLEAR     49  44  83 S6        30.17R
6HR MIN TEMP:  46; 6HR MAX TEMP:  56;


$$

INZ060-061-067>069-081>083-085>088-200700-
SOUTHWEST INDIANA

CITY           SKY/WX    TMP DP  RH WIND       PRES   REMARKS
EVANSVILLE     FOG       44  42  93 NE3       30.14F VSB 1/4
6HR MIN TEMP:  43; 6HR MAX TEMP:  53;

HUNTINGBURG *+ CLOUDY    45  45 100 E6        30.16S VSB<1/4
6HR MIN TEMP:  45; 6HR MAX TEMP:  52;

WASHINGTON +   FOG       44  43  95 SE5       30.15F VSB 1/4
6HR MIN TEMP:  42; 6HR MAX TEMP:  53;


$$

INZ062-063-066-070>080-084-089>092-200700-
SOUTH CENTRAL AND SOUTHEAST INDIANA

CITY           SKY/WX    TMP DP  RH WIND       PRES   REMARKS
BLOOMINGTON    FOG       37  35  92 CALM      30.15F VSB 1/4
6HR MIN TEMP:  38; 6HR MAX TEMP:  57;

MADISON *+       N/A     37  36  93 CALM      30.20R VSB 1/4
NORTH VERNON + FOG      N/A N/A N/A CALM      30.18  VSB 1/2

$$




USA.gov is the U.S. government's official web portal to all federal, state and local government web resources and services.